PDT,Max TemperatureF,Mean TemperatureF,Min TemperatureF,Max Dew PointF,MeanDew PointF,Min DewpointF,Max Humidity, Mean Humidity, Min Humidity, Max Sea Level PressureIn, Mean Sea Level PressureIn, Min Sea Level PressureIn, Max VisibilityMiles, Mean VisibilityMiles, Min VisibilityMiles, Max Wind SpeedMPH, Mean Wind SpeedMPH, Max Gust SpeedMPH,PrecipitationIn, CloudCover, Events, WindDirDegrees
2012-9-1,81,63,44,42,36,25,60,38,15,30.04,29.99,29.89,10,10,10,16,5,21,0.00,0,,295
2012-9-2,83,63,42,43,37,33,76,47,17,30.09,30.04,29.99,10,10,10,14,5,,0.00,0,,252
2012-9-3,86,66,45,43,40,37,83,51,19,30.09,30.03,29.96,10,10,10,16,5,20,0.00,0,,276
2012-9-4,85,66,47,47,41,37,71,45,19,30.17,30.10,30.03,10,10,10,12,5,14,0.00,0,,264
2012-9-5,87,68,48,50,44,41,77,49,21,30.07,29.95,29.82,10,10,10,24,5,26,0.00,0,,257
2012-9-6,84,68,52,48,42,39,66,44,22,30.11,30.04,29.93,10,10,9,17,6,24,0.00,0,,259
2012-9-7,87,67,46,46,42,32,77,46,14,30.22,30.16,30.12,10,10,10,10,5,13,0.00,0,,267
2012-9-8,91,70,48,57,45,33,80,48,15,30.13,29.99,29.83,10,10,8,13,6,16,0.03,1,Rain-Thunderstorm,274
2012-9-9,85,72,58,55,47,37,80,50,20,29.90,29.83,29.79,10,10,10,25,9,30,0.01,1,Rain-Thunderstorm,298
2012-9-10,71,57,43,45,36,26,77,50,22,30.14,30.01,29.90,10,10,10,22,6,32,0.00,1,,284
2012-9-11,70,54,37,38,32,26,70,45,20,30.28,30.23,30.16,10,10,10,14,4,31,0.00,0,,263
2012-9-12,76,58,39,38,33,28,79,49,18,30.41,30.34,30.27,10,9,5,10,5,13,0.00,0,,262
2012-9-13,80,58,36,45,33,27,82,48,14,30.38,30.27,30.15,10,9,6,12,5,,0.00,0,,271
2012-9-14,84,64,43,48,39,33,76,46,16,30.15,30.05,29.96,10,8,6,10,5,,0.00,0,,271
2012-9-15,91,69,47,44,39,28,77,45,12,30.07,30.03,29.98,10,10,6,15,5,20,0.00,0,,310
2012-9-16,86,67,48,45,40,32,71,43,14,30.18,30.12,30.07,10,9,3,14,5,25,0.00,0,,268
2012-9-17,86,66,45,46,40,33,71,44,16,30.18,30.10,30.04,10,8,3,8,5,15,0.00,0,,268
2012-9-18,87,65,43,52,41,33,76,46,15,30.09,30.03,29.97,10,8,4,16,4,,0.00,0,,285
2012-9-19,90,69,47,51,42,37,71,44,17,30.11,30.05,30.00,10,10,9,10,5,14,0.00,0,,267
2012-9-20,90,69,47,52,43,38,76,46,16,30.11,30.04,29.99,10,8,4,9,4,10,0.00,0,,275
2012-9-21,89,68,47,51,44,38,82,50,17,30.05,29.98,29.90,9,5,3,12,5,13,0.00,0,,273
2012-9-22,78,65,51,49,44,38,77,54,31,30.01,29.97,29.93,10,7,3,13,7,24,0.00,0,,280
2012-9-23,73,61,48,47,43,38,80,58,35,30.09,30.05,30.00,10,8,5,12,5,18,T,1,,280
2012-9-24,79,61,42,52,44,39,89,60,30,30.09,30.01,29.94,10,7,4,12,3,25,0.00,0,,256
2012-9-25,80,66,51,47,41,35,67,44,21,30.03,29.97,29.93,10,10,10,18,5,61,0.00,0,,309
2012-9-26,79,61,42,45,39,35,76,50,23,30.09,30.04,30.00,10,10,8,13,4,17,0.00,0,,258
2012-9-27,81,62,42,45,40,36,83,52,20,30.09,30.02,29.95,10,9,6,10,4,10,0.00,0,,273
2012-9-28,79,61,43,48,43,38,83,56,29,29.99,29.95,29.90,10,9,7,20,4,67,0.00,0,,271
2012-9-29,84,66,48,51,46,41,86,56,25,30.14,30.05,29.98,10,10,10,15,5,26,0.00,0,,305
2012-9-30,80,60,39,40,33,21,71,42,12,30.28,30.24,30.14,10,10,10,16,4,22,0.00,0,,272